{"data":{"norad_id":65192,"epoch":"2026-09-20T21:28:32.373696Z","epoch_age_seconds":86743,"freshness":"FRESH","line1":"1 65192U 25175U   26263.89481914  .00015591  00000+0  48426-3 0  9993","line2":"2 65192  97.2849 132.8784 0001740  91.1480 268.9963 15.33445165 62167","mean_motion":15.33445165,"eccentricity":0.000174,"inclination_deg":97.2849,"raan_deg":132.8784,"arg_perigee_deg":91.148,"mean_anomaly_deg":268.9963,"bstar":0.00048426,"rev_number":6216,"period_min":93.906194552448,"perigee_km":464.35188328932,"apogee_km":466.7334838192,"semimajor_km":6843.6796835543,"source":"CELESTRAK","updated_at":"2026-09-21T09:00:35.531492Z"}}